EHI
0 0 0 0 0 0 0 0 0 0 0 0 0 0 0 0 0 0 0 0 2 4 6 9 12 11 10 11 13 16 19 20 19 18 17 16 15 12 8 7 6 6 6 5 3 2 2 2 2
0 0 0 0 0 0 0 0 0 0 0 0 0 0 0 0 0 0 0 1 3 5 6 9 13 14 12 11 13 16 17 17 16 16 16 16 15 13 9 6 6 6 6 4 2 1 1 1 1
0 0 0 0 0 0 0 0 0 0 0 0 0 0 0 1 0 0 1 2 4 5 5 9 16 17 14 11 13 14 13 12 13 13 14 13 13 11 8 5 3 3 3 2 1 0 0 0 0
0 0 0 0 0 0 0 0 0 0 0 0 0 0 0 0 0 1 3 5 6 5 4 10 17 17 13 12 12 13 11 10 11 11 10 9 8 8 7 5 2 1 0 0 0 0 0 0 0
0 0 0 0 0 0 0 0 0 0 0 0 0 0 1 1 1 3 6 8 8 6 5 9 14 15 13 13 13 12 12 11 11 9 7 6 6 7 7 7 5 3 1 1 1 0 0 0 0
0 0 0 0 0 0 0 0 0 0 0 0 0 1 2 3 4 5 7 8 9 9 9 10 12 12 12 14 15 14 13 12 10 7 5 4 4 5 5 5 5 4 3 2 1 0 0 0 0
0 0 0 0 0 0 0 0 0 0 0 0 0 1 2 4 5 7 9 9 10 12 13 12 12 11 12 14 15 14 12 10 7 4 2 1 1 2 2 2 2 3 3 2 1 0 0 0 0
0 0 0 0 0 0 0 0 0 0 0 0 0 1 2 5 7 10 11 12 11 12 12 12 11 13 14 14 13 11 9 6 3 1 0 0 0 0 0 0 0 1 1 2 2 1 0 0 0
0 0 0 0 0 0 0 0 0 0 0 0 0 0 3 7 9 11 13 13 11 10 10 10 11 12 12 10 8 5 4 2 1 0 0 0 0 0 0 0 0 0 0 1 1 1 0 0 0
0 0 0 0 0 0 0 0 0 0 0 0 0 0 4 8 10 10 10 10 9 8 9 9 9 8 7 5 3 1 0 0 0 0 0 0 0 0 0 0 0 0 0 0 0 0 0 0 0
0 0 0 0 0 0 0 0 0 0 0 0 0 1 4 8 8 7 7 7 7 7 8 6 5 3 2 1 0 0 0 0 0 0 0 0 0 0 0 0 0 0 0 0 0 0 0 0 0
0 0 0 0 0 0 0 0 0 0 0 0 0 1 4 6 6 6 6 7 7 8 6 4 1 1 0 0 0 0 0 0 0 0 0 0 0 0 0 0 0 0 0 0 0 0 0 0 0
0 0 0 0 0 0 0 0 0 0 0 0 0 2 3 4 5 5 6 7 7 7 4 2 0 0 0 0 0 0 0 0 0 0 0 0 0 0 0 0 0 0 0 0 0 0 0 0 0
0 0 0 0 0 0 0 0 0 0 0 0 0 1 2 4 4 4 5 6 6 4 2 0 0 0 0 0 0 0 0 0 0 0 0 0 0 0 0 0 0 0 0 0 0 0 0 0 0
0 0 0 0 0 0 0 0 0 0 0 0 0 0 1 3 3 3 4 5 4 2 0 0 0 0 0 0 0 0 0 0 0 0 0 0 0 0 0 0 0 0 0 0 0 0 0 0 0
0 0 0 0 0 0 0 0 0 0 0 0 0 0 1 2 2 2 4 5 3 1 0 0 0 0 0 0 0 0 0 0 0 0 0 0 0 0 0 0 0 0 0 0 0 0 0 0 0
0 0 0 0 0 0 0 0 0 0 0 0 0 0 1 2 1 1 3 5 3 1 0 0 0 0 0 0 0 0 0 0 0 0 0 0 0 0 0 0 0 0 0 0 0 0 0 0 0
0 0 0 0 0 0 0 0 0 0 0 0 0 0 0 1 1 1 2 3 3 2 1 0 0 0 0 0 0 0 0 0 0 0 0 0 0 0 0 0 0 0 0 0 0 0 0 0 0
0 0 0 0 0 0 0 0 0 0 0 0 0 0 0 0 0 0 1 1 1 2 2 1 0 0 0 0 0 0 0 0 0 0 0 0 0 0 0 0 0 0 0 0 0 0 0 0 0
0 0 0 0 0 0 0 0 0 0 0 0 0 0 0 0 0 0 0 0 0 1 1 1 0 0 0 0 0 0 0 0 0 0 0 0 0 0 0 0 0 0 0 0 0 0 0 0 0
0 0 0 0 0 0 0 0 0 0 0 0 0 0 0 0 0 0 0 0 0 0 0 0 0 0 0 0 0 0 0 0 0 0 0 0 0 0 0 0 0 0 0 0 0 0 0 0 0
0 0 0 0 0 0 0 0 0 0 0 0 0 0 0 0 0 0 0 0 0 0 0 0 0 0 0 0 0 0 0 0 0 0 0 0 0 0 0 0 0 0 0 0 0 0 0 0 0
0 0 0 0 0 0 0 0 0 0 0 0 0 0 0 0 0 0 0 0 0 0 0 0 0 0 0 0 0 0 0 0 0 0 0 0 0 0 0 0 0 0 0 0 0 0 0 0 0
0 0 0 0 0 0 0 0 0 0 0 0 0 0 0 0 0 0 0 0 0 0 0 0 0 0 0 0 0 0 0 0 0 0 0 0 0 0 0 0 0 0 0 0 0 0 0 0 0
0 0 0 0 0 0 0 0 0 0 0 0 0 0 0 0 0 0 0 0 0 0 0 0 0 0 0 0 0 0 0 0 0 0 0 0 0 0 0 0 0 0 0 0 0 0 0 0 0
0 0 0 0 0 0 0 0 0 0 0 0 0 0 0 0 0 0 0 0 0 0 0 0 0 0 0 0 0 0 0 0 0 0 0 0 0 0 0 0 0 0 0 0 0 0 0 0 0
0 0 0 0 0 0 0 0 0 0 0 0 0 0 0 0 0 0 0 0 0 0 0 0 0 0 0 0 0 0 0 0 0 0 0 0 0 0 0 0 0 0 0 0 0 0 0 0 0
0 0 0 0 0 0 0 0 0 0 0 0 0 0 0 0 0 0 0 0 0 0 0 0 0 0 0 0 0 0 0 0 0 0 0 0 0 0 0 0 0 0 0 0 0 0 0 0 0
0 0 0 0 0 0 0 0 0 0 0 0 0 0 0 0 0 0 0 0 0 0 0 0 0 0 0 0 0 0 0 0 0 0 0 0 0 0 0 0 0 0 0 0 0 0 0 0 0
0 0 0 0 0 0 0 0 0 0 0 0 0 0 0 0 0 0 0 0 0 0 0 0 0 0 0 0 0 0 0 0 0 0 0 0 0 0 0 0 0 0 0 0 0 0 0 0 0
Wind_Speed
1 2 3 4 6 4 4 5 3 2 3 1 2 4 7 6 6 4 1 4 7 7 6 9 12 12 13 13 13 12 12 12 12 12 12 12 12 12 11 11 11 11 11 11 11 11 12 12 12
1 2 4 5 5 2 6 5 5 5 4 3 3 3 4 2 1 4 3 4 8 8 6 8 12 13 13 13 13 13 13 12 12 12 12 12 12 12 12 11 11 11 11 11 11 11 11 11 11
2 3 4 5 4 7 6 5 6 2 2 2 3 2 2 2 3 3 3 7 7 7 6 8 13 13 13 13 13 13 13 12 12 12 12 12 12 12 11 11 11 11 11 11 10 10 10 10 10
3 4 4 3 6 6 5 2 3 3 1 2 4 3 1 1 2 3 7 8 9 7 6 8 13 13 13 13 13 13 12 12 12 12 12 12 12 11 11 11 11 11 11 11 10 10 10 10 10
3 4 3 2 6 5 4 3 2 2 2 2 4 4 1 3 3 8 8 9 9 7 6 7 12 13 13 13 12 12 12 12 12 12 12 12 12 12 11 11 11 10 10 10 10 10 10 10 10
4 4 4 5 6 4 4 4 3 2 2 3 5 4 1 1 5 7 8 8 7 7 6 7 11 12 12 12 12 12 12 12 12 12 12 12 12 12 12 11 11 10 10 10 10 10 10 11 11
4 4 5 5 4 4 4 4 5 4 4 5 6 5 1 2 5 7 7 7 7 7 7 5 6 8 11 12 12 12 11 11 11 11 11 11 11 11 11 11 11 11 10 10 10 10 11 10 10
4 4 4 4 4 5 2 3 3 5 4 3 6 8 6 6 7 8 8 7 7 6 6 6 6 6 6 6 10 11 11 11 12 12 11 11 11 10 11 10 11 11 10 10 10 10 10 10 10
3 3 5 7 7 4 2 2 1 2 5 2 1 3 4 12 11 10 7 6 6 5 5 5 6 6 6 5 8 8 10 10 10 9 11 9 5 5 6 8 10 10 10 10 10 9 10 9 9
4 5 8 5 4 3 2 3 4 3 3 2 1 2 8 12 12 12 11 10 9 7 5 4 6 6 5 5 5 4 5 5 5 5 5 4 4 4 6 9 10 10 10 10 10 10 8 7 4
6 7 4 3 2 1 1 1 2 6 4 6 7 10 13 12 11 11 10 10 9 7 6 5 5 5 5 4 4 3 3 3 4 4 4 4 4 3 4 3 4 5 7 5 6 6 4 3 3
4 4 3 2 1 1 1 1 1 4 5 3 7 13 15 15 14 13 12 10 8 8 7 5 5 5 5 5 4 3 3 3 3 3 4 3 3 3 3 2 3 3 2 3 3 2 3 3 3
4 3 3 2 1 1 0 1 2 3 2 4 8 11 14 14 12 9 8 8 8 8 7 6 6 6 5 5 3 3 3 3 3 3 3 3 3 3 2 2 2 2 2 2 3 3 3 3 3
5 3 2 2 1 1 1 2 1 4 2 6 8 10 11 11 10 8 8 9 8 8 8 6 6 6 6 5 4 3 3 3 3 2 3 3 3 3 2 2 2 2 2 2 2 2 2 2 2
3 2 2 3 3 2 2 4 5 4 4 6 7 7 8 8 8 10 10 10 9 8 7 7 7 6 6 6 4 3 3 3 3 2 3 3 3 3 3 2 2 2 2 2 2 2 2 2 3
3 3 4 3 4 3 5 8 4 3 7 7 6 6 7 6 7 7 7 7 7 8 8 7 7 7 6 5 4 3 3 3 3 2 2 3 3 3 3 3 2 2 2 2 2 2 2 3 3
3 6 6 3 3 3 5 7 3 2 6 6 6 6 6 5 5 5 6 7 7 8 9 8 7 7 6 6 4 4 3 3 2 2 2 3 3 3 3 2 2 2 2 2 2 3 2 2 3
8 6 5 6 3 4 5 6 4 2 4 5 5 5 6 7 8 6 6 6 7 7 7 8 7 7 6 5 4 3 3 3 2 2 2 3 3 3 3 2 2 2 2 2 2 2 3 2 2
6 6 5 4 2 4 6 7 7 4 4 5 5 6 7 7 4 4 5 6 6 6 7 7 8 7 6 4 4 3 2 2 1 2 2 3 3 3 3 2 2 2 2 2 2 2 3 3 3
5 5 4 2 1 3 3 7 6 5 6 7 8 8 8 5 3 5 5 6 7 8 8 8 8 8 7 5 4 3 3 2 2 1 2 2 2 2 2 2 2 2 2 2 3 2 1 2 3
6 7 6 4 1 2 1 6 5 4 3 3 5 6 6 8 8 7 7 7 7 8 9 9 9 8 7 6 5 4 4 3 2 1 1 1 2 2 2 2 2 1 1 1 1 1 1 1 2
7 6 6 5 3 2 2 4 6 3 3 4 5 5 6 6 7 7 8 8 9 9 8 8 8 8 7 8 7 7 5 3 3 2 1 1 1 2 2 2 2 1 1 1 1 1 0 0 1
4 5 5 4 3 1 1 3 8 2 5 7 6 7 7 7 7 8 8 9 8 7 7 7 8 7 7 7 8 7 5 3 2 2 2 1 1 1 2 2 1 1 1 0 0 1 1 0 1
6 6 5 4 3 4 7 6 8 5 7 5 4 5 6 6 6 6 5 5 5 5 6 7 8 7 7 7 7 7 7 5 5 3 2 1 0 1 1 1 1 1 0 0 0 0 0 1 1
7 7 3 1 2 7 4 6 9 5 4 5 5 5 5 5 5 5 6 6 6 7 8 8 9 7 7 7 6 6 6 7 6 5 3 2 1 0 0 0 0 0 0 1 0 0 1 1 1
8 9 8 7 7 3 2 8 7 3 2 2 3 3 2 3 4 5 6 7 7 7 8 8 8 7 7 7 6 5 5 4 3 4 3 3 2 1 1 0 0 1 1 1 1 1 1 1 1
8 5 4 5 2 1 5 6 7 2 2 1 0 0 1 2 3 3 4 5 6 7 8 9 9 8 7 6 6 5 4 4 4 3 3 2 1 1 1 1 1 1 1 1 1 1 2 2 2
6 8 4 5 5 4 4 5 5 3 2 1 1 0 0 1 2 2 3 4 5 5 6 7 8 8 7 6 5 4 4 4 4 3 3 2 1 1 1 1 1 1 1 1 1 1 2 2 3
5 5 4 4 4 5 4 6 3 4 3 3 2 1 1 1 2 2 2 3 4 5 5 6 6 6 6 5 5 4 3 3 3 3 2 2 2 1 1 1 1 1 1 1 1 2 3 3 3
4 6 7 6 4 4 3 5 2 1 1 2 1 1 1 2 2 2 3 4 4 5 5 5 5 5 5 5 5 4 4 3 3 2 2 2 2 2 2 1 1 2 2 2 2 3 3 3 4
Wind_Direction
5 65 73 61 61 62 229 235 216 214 208 208 145 139 150 154 164 180 117 130 128 133 139 138 132 129 123 117 113 112 109 105 103 102 101 100 99 96 94 91 87 84 82 79 77 77 74 72 68
117 88 60 68 105 181 250 233 214 210 175 133 79 90 103 128 95 110 129 140 131 131 131 133 131 128 124 120 116 112 109 107 105 102 100 98 96 94 91 89 86 83 80 78 76 76 74 72 68
132 67 92 94 154 192 224 217 209 211 175 143 98 75 119 141 139 144 147 137 123 120 121 130 128 127 124 121 117 113 110 107 104 101 98 96 94 92 89 87 84 83 81 78 76 74 73 71 70
106 64 66 110 213 222 223 216 169 142 122 101 122 97 60 30 164 143 130 128 118 112 113 125 125 126 124 121 118 115 113 109 104 99 96 93 90 88 86 84 83 81 80 78 75 73 71 69 69
68 93 108 207 234 242 240 229 174 148 151 126 126 125 65 355 100 119 125 124 121 113 112 124 125 125 123 121 118 115 112 109 105 101 97 94 89 87 85 82 81 79 79 77 74 72 70 68 66
80 90 138 214 236 252 248 207 164 153 144 137 133 125 122 69 123 128 125 120 119 117 112 121 124 123 121 119 116 113 111 108 105 101 98 95 91 87 83 81 79 78 77 75 74 71 67 65 63
132 137 183 201 219 245 229 176 164 160 166 184 156 127 141 154 138 127 118 112 108 107 107 106 112 116 116 116 113 110 108 105 102 98 95 91 89 86 83 79 76 75 74 73 72 70 66 62 60
144 133 178 203 198 231 208 164 165 161 177 156 146 150 180 174 137 120 112 108 107 102 103 103 99 99 101 106 109 108 105 102 99 93 88 83 80 79 78 74 74 73 71 70 69 67 64 60 57
116 124 202 206 193 221 193 149 95 105 123 128 166 182 168 136 134 128 123 120 121 114 108 108 104 100 96 94 98 98 99 96 92 87 85 78 64 60 64 69 70 70 68 66 64 64 59 56 50
144 192 217 208 194 204 193 164 159 118 124 134 84 78 123 138 148 151 154 156 154 149 136 120 115 110 102 96 87 81 81 81 78 79 79 72 65 63 63 60 63 62 60 59 57 55 52 49 39
178 205 214 231 221 204 171 160 159 136 186 195 179 159 148 154 159 163 164 164 161 155 146 133 124 116 108 103 96 84 81 79 77 81 82 79 68 60 54 50 46 44 47 43 42 41 38 39 34
192 222 208 230 188 130 161 146 147 188 218 199 172 158 158 166 172 174 171 167 159 155 153 141 130 120 112 108 103 101 96 91 88 85 88 89 79 64 56 54 45 43 40 41 35 35 31 31 25
212 223 218 239 270 265 174 214 210 255 272 119 134 152 166 173 177 175 165 159 158 160 157 149 138 131 124 113 113 107 106 105 100 90 84 92 94 85 70 57 50 43 40 43 35 31 26 21 14
202 208 235 262 252 255 207 269 215 256 151 134 149 166 176 177 173 164 163 167 170 167 161 151 144 139 130 124 121 119 114 111 100 95 94 92 96 95 83 66 52 40 35 40 42 30 23 10 7
151 170 281 252 210 218 146 274 234 225 153 159 170 175 179 181 174 178 180 176 174 168 159 156 151 141 135 129 127 119 116 112 105 99 95 94 95 96 90 75 54 35 33 38 36 26 24 12 6
134 168 226 241 183 188 159 247 256 192 166 181 184 183 184 190 190 189 181 172 167 161 160 161 155 145 140 131 123 117 112 107 104 100 94 91 90 94 89 77 54 34 38 39 36 21 18 7 359
164 200 214 238 192 166 177 239 269 185 171 187 192 190 190 195 204 198 182 173 168 166 162 159 152 149 143 128 116 109 104 99 100 97 94 91 87 85 87 78 55 44 46 38 26 24 20 360 347
189 191 197 208 209 167 203 244 273 203 180 200 205 199 195 200 212 199 183 171 164 160 156 155 148 145 134 121 107 97 89 86 87 93 96 94 86 82 83 77 56 51 52 34 26 22 15 359 331
162 167 193 214 217 175 218 248 261 238 203 211 217 212 211 216 215 185 175 162 154 154 153 156 154 152 144 138 137 130 129 117 97 92 94 96 91 88 87 78 61 55 59 37 23 25 15 5 347
166 173 191 220 199 181 233 261 258 236 217 208 208 211 212 210 199 185 172 165 169 169 166 163 162 161 162 158 145 135 130 121 111 92 82 90 95 93 91 89 77 63 61 40 27 31 30 9 12
199 188 182 180 48 29 30 291 257 251 225 217 215 212 205 200 198 191 180 180 176 177 176 172 170 164 160 145 124 104 85 73 72 78 79 72 93 92 95 96 90 72 76 60 20 35 61 14 1
213 193 169 158 139 249 168 263 269 242 253 235 230 220 212 207 198 190 183 182 184 186 177 170 165 158 155 149 148 147 149 155 172 161 136 84 86 93 92 97 92 82 71 65 9 27 31 114 331
180 144 146 153 152 248 228 220 273 237 238 239 232 226 220 209 198 193 189 187 184 176 169 164 155 152 151 154 156 152 143 143 128 116 113 94 72 86 85 94 88 78 66 58 15 3 357 214 229
130 92 71 66 97 234 216 194 264 228 221 232 235 230 222 209 199 192 183 167 162 158 156 154 152 152 152 151 153 155 151 140 133 131 135 125 80 70 71 85 85 78 49 336 297 298 316 288 265
139 126 111 116 207 239 193 199 245 246 230 214 220 228 220 201 186 176 169 166 164 161 159 156 154 152 154 151 152 157 156 154 158 161 162 155 148 228 249 45 74 318 292 290 290 316 299 277 264
175 159 162 178 200 242 183 224 249 259 261 240 230 222 200 188 181 179 178 174 167 162 159 156 157 153 155 156 155 151 151 154 157 159 161 172 185 207 205 211 247 272 278 304 302 308 285 285 271
159 183 155 124 122 181 241 272 292 292 312 309 299 156 190 183 174 172 168 164 161 159 163 162 159 153 155 156 149 145 149 152 154 154 150 160 171 183 175 203 245 277 281 281 286 295 286 282 275
157 147 126 139 160 216 252 248 246 264 257 286 303 232 239 152 144 148 161 161 160 158 153 150 153 154 152 151 154 150 153 154 150 145 148 156 170 170 177 212 248 281 291 292 294 291 285 288 286
141 151 145 143 166 168 219 256 231 217 216 223 239 226 162 138 141 137 136 140 135 128 131 134 138 136 140 146 145 137 140 133 134 146 160 165 171 175 192 215 239 266 282 288 291 288 287 287 293
168 167 157 165 198 184 184 260 326 226 223 187 172 112 85 83 83 91 98 105 111 119 127 130 133 137 145 144 136 133 130 127 132 146 163 166 180 199 208 215 237 262 273 273 270 280 284 282 286